| time (UTC) | temp F | wind direction | speed knots | gust knots | rain 1hr in | rain 24hr in | rain mn in | humidity % | barometer mb |
| 20260503194541 | 79 | 331 | 1.7 | 7.8 | 0.00 | 0.00 | 0.00 | 56 | 1009.9 |
| 20260503193041 | 78 | 313 | 1.7 | 7.0 | 0.00 | 0.00 | 0.00 | 60 | 1010.0 |
| 20260503191542 | 75 | 355 | 1.7 | 7.0 | 0.00 | 0.00 | 0.00 | 61 | 1009.8 |
| 20260503190041 | 74 | 350 | 2.6 | 8.7 | 0.00 | 0.00 | 0.00 | 63 | 1010.0 |
| 20260503184600 | 74 | 304 | 3.5 | 7.8 | 0.00 | 0.00 | 0.00 | 62 | 1009.9 |
| 20260503183044 | 75 | 267 | 3.5 | 8.7 | 0.00 | 0.00 | 0.00 | 61 | 1010.0 |
| 20260503181541 | 79 | 34 | 2.6 | 7.8 | 0.00 | 0.00 | 0.00 | 55 | 1010.0 |
| 20260503180040 | 79 | 355 | 1.7 | 6.1 | 0.00 | 0.00 | 0.00 | 60 | 1010.1 |
| 20260503174542 | 77 | 329 | 0.9 | 4.3 | 0.00 | 0.00 | 0.00 | 63 | 1010.2 |
| 20260503081544 | 51 | 163 | 0.0 | 1.7 | 0.00 | 0.00 | 0.00 | 96 | 1012.7 |
| 20260503071600 | 51 | 0 | 0.0 | 3.5 | 0.00 | 0.00 | 0.00 | 95 | 1013.0 |
| 20260503054555 | 52 | 346 | 0.0 | 2.6 | 0.00 | 0.00 | 0.00 | 94 | 1013.5 |
| 20260503053042 | 52 | 0 | 0.9 | 1.7 | 0.00 | 0.00 | 0.00 | 94 | 1013.7 |
| 20260503051536 | 53 | 0 | 0.0 | 1.7 | 0.00 | 0.00 | 0.00 | 94 | 1013.8 |
| 20260503050047 | 53 | 0 | 0.0 | 2.6 | 0.00 | 0.00 | 0.00 | 93 | 1013.6 |
| 20260503044550 | 53 | 0 | 0.0 | 2.6 | 0.00 | 0.00 | 0.00 | 93 | 1013.6 |
| 20260503043047 | 53 | 0 | 0.0 | 1.7 | 0.00 | 0.00 | 0.00 | 93 | 1013.6 |
| 20260503041543 | 53 | 348 | 0.0 | 3.5 | 0.00 | 0.00 | 0.00 | 92 | 1013.7 |
| 20260503040040 | 54 | 0 | 0.9 | 3.5 | 0.00 | 0.00 | 0.00 | 92 | 1013.5 |
| 20260503034536 | 54 | 347 | 0.9 | 2.6 | 0.00 | 0.00 | 0.00 | 91 | 1013.6 |
| 20260503033042 | 54 | 0 | 0.0 | 4.3 | 0.00 | 0.00 | 0.00 | 91 | 1013.5 |
| 20260503031543 | 55 | 348 | 0.9 | 2.6 | 0.00 | 0.00 | 0.00 | 90 | 1013.5 |
| 20260503030041 | 55 | 341 | 0.0 | 2.6 | 0.00 | 0.00 | 0.00 | 89 | 1013.3 |
| 20260503024541 | 56 | 293 | 0.9 | 4.3 | 0.00 | 0.00 | 0.00 | 88 | 1013.1 |
| 20260503023043 | 56 | 339 | 0.9 | 5.2 | 0.00 | 0.00 | 0.00 | 87 | 1012.8 |
| 20260503021551 | 56 | 270 | 1.7 | 4.3 | 0.00 | 0.00 | 0.00 | 87 | 1012.9 |
| 20260503020044 | 57 | 346 | 0.9 | 5.2 | 0.00 | 0.00 | 0.00 | 86 | 1013.0 |
| 20260503014542 | 57 | 9 | 1.7 | 4.3 | 0.00 | 0.00 | 0.00 | 85 | 1013.0 |
| 20260503013042 | 57 | 352 | 1.7 | 5.2 | 0.00 | 0.00 | 0.00 | 85 | 1013.1 |
| 20260503011548 | 57 | 302 | 1.7 | 6.1 | 0.00 | 0.00 | 0.00 | 85 | 1013.2 |
| 20260503010042 | 56 | 5 | 3.5 | 10.4 | 0.00 | 0.00 | 0.00 | 86 | 1013.0 |
| 20260503004600 | 56 | 321 | 3.5 | 9.6 | 0.00 | 0.00 | 0.00 | 85 | 1013.1 |
| 20260503003042 | 57 | 5 | 3.5 | 10.4 | 0.00 | 0.00 | 0.00 | 83 | 1013.0 |
| 20260503001541 | 59 | 45 | 4.3 | 9.6 | 0.00 | 0.00 | 0.00 | 81 | 1013.2 |
| 20260503000059 | 59 | 271 | 2.6 | 7.8 | 0.00 | 0.00 | 0.00 | 80 | 1013.3 |
| 20260502234543 | 60 | 321 | 3.5 | 11.3 | 0.00 | 0.00 | 0.00 | 79 | 1013.5 |
| 20260502233040 | 60 | 341 | 4.3 | 9.6 | 0.00 | 0.00 | 0.00 | 79 | 1013.6 |
| 20260502231536 | 60 | 355 | 4.3 | 10.4 | 0.00 | 0.00 | 0.00 | 79 | 1013.7 |
| 20260502230047 | 60 | 261 | 2.6 | 10.4 | 0.00 | 0.00 | 0.00 | 78 | 1013.9 |
| 20260502224541 | 60 | 281 | 3.5 | 10.4 | 0.00 | 0.00 | 0.00 | 77 | 1014.0 |
| 20260502223041 | 60 | 360 | 4.3 | 11.3 | 0.00 | 0.00 | 0.00 | 77 | 1014.1 |
| 20260502221609 | 60 | 308 | 5.2 | 12.2 | 0.00 | 0.00 | 0.00 | 77 | 1014.2 |
| 20260502220053 | 60 | 25 | 2.6 | 10.4 | 0.00 | 0.00 | 0.00 | 77 | 1014.4 |
| 20260502214543 | 60 | 269 | 6.1 | 11.3 | 0.00 | 0.00 | 0.00 | 78 | 1014.3 |
| 20260502213043 | 60 | 15 | 2.6 | 7.0 | 0.00 | 0.00 | 0.00 | 78 | 1014.4 |
| 20260502211542 | 59 | 15 | 3.5 | 8.7 | 0.00 | 0.00 | 0.00 | 79 | 1014.6 |
| 20260502210040 | 59 | 325 | 3.5 | 10.4 | 0.00 | 0.00 | 0.00 | 78 | 1014.7 |
| 20260502204542 | 59 | 268 | 3.5 | 9.6 | 0.00 | 0.00 | 0.00 | 79 | 1015.0 |
| 20260502203041 | 59 | 355 | 2.6 | 10.4 | 0.00 | 0.00 | 0.00 | 78 | 1015.1 |
| 20260502201545 | 60 | 340 | 2.6 | 8.7 | 0.00 | 0.00 | 0.00 | 77 | 1015.1 |
| 20260502200057 | 61 | 318 | 2.6 | 7.8 | 0.00 | 0.00 | 0.00 | 75 | 1015.1 |